NOAA 16 DEB

Satellite information

Favourite Embed

Satellite Type and Status

DEBRISIN ORBIT

Key statistics

Satellite NOAA 16 DEB at a glance.

Uptime

9215

Days in orbit

Revolutions

≈ 14.2

Per day

Orbit

SSO

Sun Synchronous Orbit

Inclination

98.6

Latest

Satellite identification and parameters

Extended collection of information and parameters for NOAA 16 DEB.

Object identification

Identified? True

Debris? True

Object name: NOAA 16 DEB

International designator: 2000-055NF

Object number (NORAD): 41531

Object ID (CCSDS): 41531

Country: UNITED STATES OF AMERICA (US)

Current information (Y/N): Y

RCS size: SMALL

Orbital parameters

Period: 101.598 minutes

Inclination: 98.6486 deg

SMA: 7212.464 km

Apoapsis: 855.619 km

Periapsis: 813.039 km

RAAN: 8.9743 deg

Eccentricy: 0.00295186

Argument of periapsis: 39.5337 deg

Mean anomaly: 320.7983 deg

Mean motion: 14.17350462 rev/day

Mean motion (dot): 0.00004654 rev/day2

B* drag term: 0.0023107594 1/REarth

Two-line elements (TLE)

Creation date: Dec. 11, 2025, 10:54 a.m.

Reference frame: TEME

Reference center: EARTH

Epoch: Dec. 11, 2025, 7:21 a.m. UTC

TLE line 0: 0 NOAA 16 DEB

TLE line 1: 1 41531U 00055NF 25345.30645030 .00004654 00000-0 23108-2 0 9999

TLE line 2: 2 41531 98.6486 8.9743 0029519 39.5337 320.7983 14.17350462496558

Live tracking on map

Real-time ground track for satellite NOAA 16 DEB.

In-orbit conjunctions

A list of the most updated potential collisions computed for object NOAA 16 DEB.

Target Orbit TCA Probability of collision Miss distance Type
DMSP 5D-2 F8 DEB SSO 2025-05-24 06:32:54 0.001110184 35.0 (m) DEBRIS
RADCAL LEO 2024-12-19 06:27:24 0.000110668 409.0 (m) PAYLOAD
CZ-6A DEB LEO 2024-12-08 22:31:55 0.0001832789 131.0 (m) DEBRIS

Associated space launch

The NOAA K, L and M POES satellites begin the fifth generation of improved environmental monitoring in support of NOAA missions. The instrument payload has significant improvements and additions/deletions. The instrument changes have effected the spacecraft subsystems and data formats.

NOAA 16 DEB was lifted into orbit during the mission ‘Titan II SLV | NOAA 16’, on board a Titan II SLV space rocket.

The launch took place on Sept. 21, 2000, 10:22 a.m. from Space Launch Complex 4W.

For more information about the launch, click the button.

Launch to space Titan II SLV | NOAA 16
Titan II SLV | NOAA 16

Agency: N/A

Status: Launch Successful

Launch date: Sept. 21, 2000, 10:22 a.m. UTC

Rocket: Titan II SLV

Launch pad: Space Launch Complex 4W

Location: Vandenberg SFB, CA, USA

...

Latest news about this satellite

There are no fresh news available about this satellite. Check back as we update our databases every day.


Newsletter sign-up

Weekly statistics, charts and insights to help you stay on top of the space industry.